| time (UTC) | temp C | wind direction | speed KPH | gust KPH | rain 1hr cm | rain 24hr cm | rain mn cm | humidity % | barometer mb |
| 20260505101831 | 16 | 224 | 4.8 | 11.3 | 0.00 | 0.00 | 0.00 | 47 | 1022.8 |
| 20260505100331 | 16 | 216 | 8.0 | 14.5 | 0.00 | 0.00 | 0.00 | 46 | 1022.8 |
| 20260505093330 | 16 | 228 | 4.8 | 8.0 | 0.00 | 0.00 | 0.00 | 45 | 1022.4 |
| 20260505091832 | 16 | 211 | 8.0 | 14.5 | 0.00 | 0.00 | 0.00 | 44 | 1022.4 |
| 20260505084830 | 17 | 217 | 14.5 | 24.1 | 0.00 | 0.00 | 0.00 | 45 | 1022.1 |
| 20260505083330 | 17 | 207 | 14.5 | 20.9 | 0.00 | 0.00 | 0.00 | 44 | 1021.9 |
| 20260505081830 | 17 | 229 | 9.7 | 20.9 | 0.00 | 0.00 | 0.00 | 44 | 1021.7 |
| 20260505080331 | 17 | 199 | 9.7 | 19.3 | 0.00 | 0.00 | 0.00 | 43 | 1021.7 |
| 20260505074830 | 18 | 197 | 12.9 | 17.7 | 0.00 | 0.00 | 0.00 | 41 | 1021.7 |
| 20260505073330 | 18 | 265 | 12.9 | 20.9 | 0.00 | 0.00 | 0.00 | 40 | 1021.7 |
| 20260505071831 | 18 | 227 | 17.7 | 22.5 | 0.00 | 0.00 | 0.00 | 38 | 1021.7 |
| 20260505064830 | 19 | 195 | 6.4 | 16.1 | 0.00 | 0.00 | 0.00 | 38 | 1021.4 |
| 20260505063332 | 20 | 223 | 14.5 | 22.5 | 0.00 | 0.00 | 0.00 | 38 | 1021.1 |
| 20260505061830 | 20 | 198 | 12.9 | 16.1 | 0.00 | 0.00 | 0.00 | 35 | 1021.0 |
| 20260505054831 | 20 | 225 | 16.1 | 27.4 | 0.00 | 0.00 | 0.00 | 36 | 1020.8 |
| 20260505050332 | 22 | 203 | 11.3 | 19.3 | 0.00 | 0.00 | 0.00 | 24 | 1020.8 |
| 20260505033330 | 24 | 243 | 9.7 | 16.1 | 0.00 | 0.00 | 0.00 | 16 | 1020.3 |
| 20260505030332 | 25 | 240 | 3.2 | 4.8 | 0.00 | 0.00 | 0.00 | 14 | 1020.2 |
| 20260505024830 | 25 | 227 | 4.8 | 14.5 | 0.00 | 0.00 | 0.00 | 15 | 1020.3 |
| 20260505023331 | 23 | 215 | 4.8 | 11.3 | 0.00 | 0.00 | 0.00 | 17 | 1020.2 |
| 20260505021831 | 23 | 129 | 8.0 | 14.5 | 0.00 | 0.00 | 0.00 | 15 | 1020.3 |
| 20260505014831 | 22 | 101 | 8.0 | 14.5 | 0.00 | 0.00 | 0.00 | 15 | 1020.3 |
| 20260505013331 | 23 | 52 | 8.0 | 12.9 | 0.00 | 0.00 | 0.00 | 15 | 1020.1 |
| 20260505011831 | 24 | 56 | 4.8 | 8.0 | 0.00 | 0.00 | 0.00 | 14 | 1020.0 |
| 20260505010331 | 23 | 46 | 6.4 | 9.7 | 0.00 | 0.00 | 0.00 | 15 | 1020.0 |
| 20260505003331 | 22 | 39 | 4.8 | 8.0 | 0.00 | 0.00 | 0.00 | 16 | 1019.9 |
| 20260505000331 | 22 | 27 | 4.8 | 12.9 | 0.00 | 0.00 | 0.00 | 15 | 1019.6 |
| 20260504234832 | 21 | 15 | 8.0 | 11.3 | 0.00 | 0.00 | 0.00 | 16 | 1019.7 |
| 20260504233331 | 21 | 46 | 4.8 | 6.4 | 0.00 | 0.00 | 0.00 | 17 | 1019.7 |
| 20260504231831 | 20 | 45 | 4.8 | 11.3 | 0.00 | 0.00 | 0.00 | 18 | 1019.7 |
| 20260504230330 | 20 | 30 | 9.7 | 17.7 | 0.00 | 0.00 | 0.00 | 17 | 1019.8 |
| 20260504224831 | 20 | 37 | 4.8 | 8.0 | 0.00 | 0.00 | 0.00 | 19 | 1019.7 |
| 20260504223332 | 18 | 31 | 9.7 | 11.3 | 0.00 | 0.00 | 0.00 | 18 | 1019.4 |
| 20260504221830 | 18 | 9 | 8.0 | 14.5 | 0.00 | 0.00 | 0.00 | 21 | 1019.2 |
| 20260504220331 | 17 | 25 | 8.0 | 11.3 | 0.00 | 0.00 | 0.00 | 21 | 1019.1 |
| 20260504213330 | 16 | 33 | 9.7 | 14.5 | 0.00 | 0.00 | 0.00 | 24 | 1018.6 |
| 20260504211831 | 15 | 31 | 11.3 | 22.5 | 0.00 | 0.00 | 0.00 | 26 | 1018.4 |
| 20260504210332 | 15 | 13 | 8.0 | 20.9 | 0.00 | 0.00 | 0.00 | 27 | 1018.1 |
| 20260504203332 | 13 | 20 | 8.0 | 14.5 | 0.00 | 0.03 | 0.00 | 29 | 1017.3 |
| 20260504201830 | 13 | 30 | 3.2 | 9.7 | 0.00 | 0.05 | 0.00 | 30 | 1017.0 |
| 20260504200331 | 13 | 35 | 8.0 | 9.7 | 0.00 | 0.10 | 0.00 | 30 | 1016.5 |
| 20260504194832 | 13 | 11 | 8.0 | 14.5 | 0.00 | 0.23 | 0.00 | 30 | 1016.2 |
| 20260504193331 | 13 | 28 | 4.8 | 11.3 | 0.00 | 0.28 | 0.00 | 33 | 1015.7 |
| 20260504191832 | 13 | 29 | 4.8 | 9.7 | 0.00 | 0.36 | 0.00 | 35 | 1015.4 |
| 20260504190330 | 13 | 40 | 6.4 | 6.4 | 0.00 | 0.36 | 0.00 | 36 | 1015.0 |
| 20260504184831 | 13 | 13 | 4.8 | 11.3 | 0.00 | 0.38 | 0.00 | 37 | 1014.6 |
| 20260504183333 | 13 | 45 | 4.8 | 8.0 | 0.00 | 0.43 | 0.00 | 39 | 1014.3 |
| 20260504181831 | 13 | 31 | 8.0 | 11.3 | 0.00 | 0.43 | 0.00 | 40 | 1014.0 |
| 20260504180331 | 13 | 26 | 4.8 | 8.0 | 0.00 | 0.51 | 0.00 | 41 | 1013.7 |
| 20260504173331 | 13 | 26 | 1.6 | 3.2 | 0.00 | 0.74 | 0.00 | 41 | 1013.0 |
| 20260504171832 | 13 | 31 | 1.6 | 3.2 | 0.00 | 0.76 | 0.00 | 41 | 1012.7 |
| 20260504170331 | 13 | 40 | 1.6 | 4.8 | 0.00 | 0.81 | 0.00 | 42 | 1012.2 |
| 20260504160332 | 14 | 14 | 9.7 | 17.7 | 0.00 | 0.97 | 0.00 | 42 | 1010.7 |
| 20260504150331 | 15 | 18 | 4.8 | 12.9 | 0.00 | 1.12 | 0.00 | 45 | 1009.4 |
| 20260504140331 | 16 | 46 | 1.6 | 6.4 | 0.00 | 1.12 | 1.12 | 44 | 1008.3 |
| 20260504130332 | 17 | 37 | 3.2 | 4.8 | 0.00 | 1.12 | 1.12 | 41 | 1006.7 |